Weather History for KISW - June, 2013

Change the Weather History Date:

Saturday, June 15, 2013

  Actual Average Record
Temperature  
Mean Temperature 69 °F -  
Max Temperature 81 °F 75 °F 91 °F (2007)
Min Temperature 57 °F 52 °F 36 °F (1999)
Cooling Degree Days 4    
Growing Degree Days 19 (Base 50)    
Moisture  
Dew Point 62 °F    
Average Humidity 87    
Maximum Humidity 100    
Minimum Humidity 58    
Precipitation  
Precipitation 1.41 in - - ()
Sea Level Pressure  
Sea Level Pressure 29.91 in    
Wind  
Wind Speed 7 mph (SSW)    
Max Wind Speed 18 mph    
Max Gust Speed 26 mph    
Visibility 7 miles    
Events Fog , Rain    
Averages and records for this station are not official NWS values.
T = Trace of Precipitation, MM = Missing Value Source: NWS Daily Summary

Daily Weather History Graph

Daily Weather History Graph

Search for Another Location

Airport or City:

Trip Planner

Search our weather history database for the weather conditions in past years. The results will help you decide how hot, cold, wet, or windy it might be!

Date:

Astronomy

Jun. 15, 2013 Rise Set
Actual Time 5:14 AM CDT 8:45 PM CDT
Civil Twilight 4:37 AM CDT 9:22 PM CDT
Nautical Twilight 3:49 AM CDT 10:10 PM CDT
Astronomical Twilight 2:47 AM CDT 11:12 PM CDT
Moon 12:03 PM CDT (6/15) 12:08 AM CDT (6/15)
Length of Visible Light 16h 44m
Length of Day
15h 31m
Waxing Crescent, 40% of the Moon is Illuminated
Jun 15
Waxing Crescent
Jun 16
First Quarter
Jun 23
Full
Jun 29
Last Quarter
Jul 8
New

Hourly Weather History & Observations

Time (CDT) Temp. Heat Index Dew Point Humidity Pressure Visibility Wind Dir Wind Speed Gust Speed Precip Events Conditions
12:54 AM 64.0 °F - 55.0 °F 73% 30.02 in 10.0 mi SSE 3.5 mph - 0.00 in Rain Light Rain
1:54 AM 62.1 °F - 55.9 °F 80% 30.00 in 10.0 mi SE 6.9 mph 17.3 mph 0.01 in Rain Light Rain
2:54 AM 60.1 °F - 57.9 °F 93% 30.05 in 5.0 mi SE 4.6 mph - 0.04 in Rain Rain
3:54 AM 60.1 °F - 57.9 °F 93% 30.01 in 10.0 mi SE 5.8 mph - 0.11 in Rain Light Rain
4:54 AM 61.0 °F - 59.0 °F 93% 29.95 in 10.0 mi SSW 15.0 mph 18.4 mph 0.02 in Rain Light Rain
5:50 AM 60.8 °F - 60.8 °F 100% 29.94 in 8.0 mi SSW 10.4 mph - 0.03 in Rain Light Rain
5:54 AM 61.0 °F - 60.1 °F 97% 29.93 in 8.0 mi South 10.4 mph - 0.03 in   Overcast
6:12 AM 62.6 °F - 60.8 °F 94% 29.93 in 8.0 mi SSW 12.7 mph - 0.00 in Rain Light Rain
6:54 AM 63.0 °F - 61.0 °F 93% 29.96 in 9.0 mi Calm Calm - 0.00 in   Overcast
7:27 AM 62.6 °F - 60.8 °F 94% 29.95 in 10.0 mi SSE 6.9 mph - N/A   Overcast
7:54 AM 63.0 °F - 61.0 °F 93% 29.95 in 10.0 mi SE 3.5 mph - N/A   Overcast
8:54 AM 64.9 °F - 62.1 °F 90% 29.96 in 10.0 mi Variable 3.5 mph - N/A   Mostly Cloudy
9:54 AM 66.9 °F - 62.1 °F 84% 29.95 in 10.0 mi South 5.8 mph - N/A   Partly Cloudy
10:54 AM 70.0 °F - 63.0 °F 78% 29.95 in 10.0 mi South 5.8 mph - N/A   Overcast
11:54 AM 72.0 °F - 63.0 °F 73% 29.94 in 10.0 mi South 8.1 mph - N/A   Mostly Cloudy
12:54 PM 75.0 °F - 64.0 °F 69% 29.94 in 10.0 mi SSW 10.4 mph - N/A   Mostly Cloudy
1:54 PM 77.0 °F - 64.9 °F 66% 29.94 in 10.0 mi SSW 8.1 mph - N/A   Partly Cloudy
2:54 PM 78.1 °F - 64.9 °F 64% 29.91 in 10.0 mi SW 8.1 mph - N/A   Partly Cloudy
3:54 PM 78.1 °F - 66.0 °F 66% 29.88 in 10.0 mi Variable 3.5 mph - N/A   Scattered Clouds
4:54 PM 81.0 °F 82.7 °F 64.9 °F 58% 29.84 in 10.0 mi Variable 5.8 mph - N/A   Clear
5:54 PM 77.0 °F - 66.0 °F 69% 29.83 in 10.0 mi South 5.8 mph - N/A   Partly Cloudy
6:54 PM 72.0 °F - 68.0 °F 87% 29.80 in 10.0 mi Calm Calm - 0.09 in   Overcast
7:09 PM 69.8 °F - 64.4 °F 83% 29.86 in 1.2 mi West 18.4 mph 26.5 mph 0.17 in Rain Heavy Rain
7:11 PM 68.0 °F - 64.4 °F 88% 29.85 in 0.8 mi West 16.1 mph 26.5 mph 0.27 in Rain Heavy Rain
7:19 PM 64.4 °F - 62.6 °F 94% 29.85 in 0.2 mi SSW 13.8 mph 23.0 mph 0.58 in Fog , Rain Heavy Rain
7:30 PM 64.4 °F - 62.6 °F 94% 29.85 in 1.2 mi WSW 6.9 mph - 0.75 in Rain Heavy Rain
7:41 PM 64.4 °F - 62.6 °F 94% 29.89 in 2.5 mi NW 11.5 mph 19.6 mph 0.83 in Rain Heavy Rain
7:54 PM 64.9 °F - 63.0 °F 93% 29.89 in 1.2 mi NNW 15.0 mph 21.9 mph 0.98 in Rain Heavy Rain
8:13 PM 64.4 °F - 64.4 °F 100% 29.89 in 3.0 mi North 3.5 mph - 0.09 in Rain Light Rain
8:54 PM 64.0 °F - 64.0 °F 100% 29.85 in 10.0 mi Calm Calm - 0.13 in   Overcast
9:54 PM 62.1 °F - 62.1 °F 100% 29.87 in 10.0 mi WSW 3.5 mph - N/A   Clear
10:54 PM 61.0 °F - 61.0 °F 100% 29.87 in 10.0 mi Calm Calm - N/A   Clear
11:42 PM 59.0 °F - 59.0 °F 100% 29.88 in 1.2 mi SSW 3.5 mph - N/A   Clear
11:45 PM 57.2 °F - 57.2 °F 100% 29.88 in 0.8 mi SSW 4.6 mph - N/A   Clear
11:54 PM 59.0 °F - 59.0 °F 100% 29.88 in 0.8 mi Calm Calm - N/A   Clear